Retour au catalogue

FIREFLY-3

ActifScienceSSO
NORAD 62710·PAYLOAD·🇮🇳 India

Lancé Jan 14, 2025 depuis Vandenberg Space Force Base

Loading…

Prochains Passages (prochaines 24 heures)

TLE

FraisSource: Space-Track

Époque: Sep 14, 2026, 12:54 UTC

1 62710U 25009DF  26257.53780938  .00000598  00000-0  63334-4 0  9992
2 62710  97.6996 333.8047 0002185 206.5180 153.5928 14.92730921 90662

Suivez FIREFLY-3 en temps réel avec AllMySat

Download on the App Store